Regional Weather Roundup
Issued by NWS Midland/Odessa, TX

Home | Current Version | Previous Version | Text Only | Print | Product List | Glossary On
Versions: 1 2 3 4 5 6 7 8 9 10 11 12 13 14 15 16 17 18 19 20 21 22 23 24 25 26 27 28 29 30 31 32 33 34 35 36 37 38 39 40 41 42 43 44 45 46 47 48 49 50
000
ASUS44 KMAF 041010
RWRMAF
MIDLAND AREA WEATHER ROUNDUP
NATIONAL WEATHER SERVICE MIDLAND TX
500 AM CDT TUE AUG 04 2015

...IN SOUTHWEST TEXAS AND SOUTHEAST NEW MEXICO...

CITY           SKY/WX    TMP DP  RH WIND       PRES   REMARKS
ALPINE         MOCLDY    68  58  69 SW7       30.15S
ANDREWS        FAIR      70  69  99 SW3       30.02R
ARTESIA        CLEAR     66  66 100 S9        30.03R
BIG SPRING     MOCLDY    70  63  79 SE6       29.99R
CARLSBAD       CLEAR     67  62  84 E5        30.00S
DRYDEN           N/A     80  63  55 W3        29.95S
FORT STOCKTON  PTCLDY    73  63  70 CALM      30.00S
GUAD PASS      CLEAR     66  57  72 SW12      30.15F
HOBBS            N/A    N/A N/A N/A MISG        N/A
MARFA          MOCLDY    66  61  82 NW3       30.14S
MIDLAND AIRPK  MOCLDY    73  68  86 S3        30.00R
MIDLAND INTL   PTCLDY    72  67  84 S6        30.00R
ODESSA         PTCLDY    71  67  87 W5        30.02R
PECOS          MOCLDY    73  64  73 E6        29.98F
PRESIDIO       FAIR      77  62  58 MISG      29.99S
SEMINOLE       MOCLDY    68  67  96 CALM      30.03R
SNYDER         MOCLDY    71  64  80 CALM      29.96R
WINK           CLEAR     72  69  90 CALM      29.99S
$$
...OTHER STATIONS IN TEXAS...

CITY           SKY/WX    TMP DP  RH WIND       PRES   REMARKS
ABILENE        MOCLDY    77  59  53 S6        29.94F
AMARILLO       LGT RAIN  66  63  90 NW14      30.09S
AUSTIN         PTCLDY    72  71  97 CALM      29.94S
BROWNSVILLE    PTCLDY    76  75  97 S7        29.90R
CORPUS CHRISTI CLOUDY    80  77  90 S3        29.91R
DALLAS FTW     PTCLDY    81  63  54 S8        29.90S
DEL RIO        CLEAR     80  70  71 E6        29.91R
EL PASO        PTCLDY    74  63  68 E6        30.04R
HOUSTON INT    PTCLDY    75  73  93 CALM      29.94R
LUBBOCK        CLOUDY    69  63  81 NW9       29.99S
SAN ANGELO     PTCLDY    76  60  57 S6        29.95S
SAN ANTONIO    CLOUDY    81  74  79 S9        29.95S
WACO           PTCLDY    80  69  69 S9        29.91S
WICHITA FALLS  NOT AVBL
$$
...OTHER LOCATIONS IN NEW MEXICO...

CITY           SKY/WX    TMP DP  RH WIND       PRES   REMARKS
ALAMAGORDO     PTCLDY    72  57  60 SE5       30.08R
ALBUQUERQUE    PTCLDY    67  48  50 SE6       30.15R
CANNON AFB     CLEAR     65  61  87 N1        30.07R
CLOVIS         MOCLDY    63  61  94 N6        30.09R
HOLLOMAN AFB   PTCLDY    74  59  60 SE7       30.05S
ROSWELL        CLEAR     65  63  93 SW3       30.01S
RUIDOSO          N/A    N/A N/A N/A MISG        N/A
SANTA FE       CLEAR     60  49  66 VRB3      30.20S
TRUTH OR CONSE PTCLDY    71  59  65 SE3       30.11R
TUCUMCARI      CLEAR     67  63  87 E9        30.06R
$$


USA.gov is the U.S. government's official web portal to all federal, state and local government web resources and services.